| time (UTC) | temp F | wind direction | speed MPH | gust MPH | rain 1hr in | rain 24hr in | rain mn in | humidity % | barometer mb |
| 20260903055601 | 69 | 62 | 3.0 | 5.0 | 0.00 | 0.00 | 0.00 | 80 | 1012.3 |
| 20260903055100 | 69 | 72 | 3.0 | 4.0 | 0.00 | 0.00 | 0.00 | 81 | 1012.3 |
| 20260903054559 | 69 | 88 | 3.0 | 4.0 | 0.00 | 0.00 | 0.00 | 81 | 1012.3 |
| 20260903054100 | 69 | 85 | 3.0 | 5.0 | 0.00 | 0.00 | 0.00 | 81 | 1012.3 |
| 20260903053559 | 69 | 76 | 3.0 | 5.0 | 0.00 | 0.00 | 0.00 | 81 | 1012.3 |
| 20260903053054 | 69 | 90 | 2.0 | 5.0 | 0.00 | 0.00 | 0.00 | 81 | 1012.4 |
| 20260903052549 | 69 | 73 | 2.0 | 4.0 | 0.00 | 0.00 | 0.00 | 81 | 1012.4 |
| 20260903052048 | 69 | 67 | 1.0 | 3.0 | 0.00 | 0.00 | 0.00 | 81 | 1012.4 |
| 20260903051550 | 69 | 82 | 1.0 | 3.0 | 0.00 | 0.00 | 0.00 | 83 | 1012.4 |
| 20260903051049 | 69 | 79 | 1.0 | 3.0 | 0.00 | 0.00 | 0.00 | 83 | 1012.5 |
| 20260903050548 | 69 | 89 | 1.0 | 2.0 | 0.00 | 0.00 | 0.00 | 84 | 1012.5 |
| 20260903050047 | 69 | 62 | 1.0 | 3.0 | 0.00 | 0.00 | 0.00 | 83 | 1012.6 |
| 20260903045544 | 69 | 75 | 2.0 | 3.0 | 0.00 | 0.00 | 0.00 | 84 | 1012.5 |
| 20260903045044 | 69 | 77 | 2.0 | 5.0 | 0.00 | 0.00 | 0.00 | 86 | 1012.6 |
| 20260903044814 | 69 | 47 | 3.0 | 6.0 | 0.00 | 0.00 | 0.00 | 86 | 1012.5 |
| 20260903044310 | 69 | 50 | 3.0 | 6.0 | 0.00 | 0.00 | 0.00 | 87 | 1012.6 |
| 20260903043809 | 69 | 60 | 3.0 | 6.0 | 0.00 | 0.00 | 0.00 | 88 | 1012.6 |
| 20260903043038 | 68 | 58 | 3.0 | 4.0 | 0.00 | 0.00 | 0.00 | 90 | 1012.4 |
| 20260903042539 | 68 | 26 | 2.0 | 4.0 | 0.00 | 0.00 | 0.00 | 93 | 1012.5 |
| 20260903042038 | 67 | 11 | 1.0 | 3.0 | 0.00 | 0.00 | 0.00 | 94 | 1012.5 |
| 20260903041538 | 66 | 335 | 0.0 | 0.0 | 0.00 | 0.00 | 0.00 | 92 | 1012.6 |
| 20260903041044 | 66 | 334 | 0.0 | 0.0 | 0.00 | 0.00 | 0.00 | 93 | 1012.5 |
| 20260903041038 | 66 | 334 | 0.0 | 0.0 | 0.00 | 0.00 | 0.00 | 92 | 1012.6 |
| 20260903040039 | 66 | 334 | 0.0 | 0.0 | 0.00 | 0.00 | 0.00 | 93 | 1012.5 |
| 20260903035532 | 66 | 334 | 0.0 | 0.0 | 0.00 | 0.00 | 0.00 | 93 | 1012.5 |
| 20260903035027 | 66 | 334 | 0.0 | 0.0 | 0.00 | 0.00 | 0.00 | 93 | 1012.5 |
| 20260903034520 | 66 | 334 | 0.0 | 0.0 | 0.00 | 0.00 | 0.00 | 92 | 1012.5 |
| 20260903034014 | 67 | 334 | 0.0 | 0.0 | 0.00 | 0.00 | 0.00 | 93 | 1012.3 |
| 20260903033739 | 67 | 334 | 0.0 | 0.0 | 0.00 | 0.00 | 0.00 | 92 | 1012.5 |
| 20260903033002 | 67 | 334 | 0.0 | 0.0 | 0.00 | 0.00 | 0.00 | 92 | 1012.6 |
| 20260903032456 | 67 | 334 | 0.0 | 0.0 | 0.00 | 0.00 | 0.00 | 92 | 1012.6 |
| 20260903032221 | 67 | 334 | 0.0 | 0.0 | 0.00 | 0.00 | 0.00 | 92 | 1012.6 |
| 20260903031444 | 67 | 334 | 0.0 | 0.0 | 0.00 | 0.00 | 0.00 | 91 | 1012.5 |
| 20260903030938 | 67 | 334 | 0.0 | 0.0 | 0.00 | 0.00 | 0.00 | 91 | 1012.5 |
| 20260903030432 | 68 | 334 | 0.0 | 0.0 | 0.00 | 0.00 | 0.00 | 92 | 1012.5 |
| 20260903025926 | 68 | 334 | 0.0 | 0.0 | 0.00 | 0.00 | 0.00 | 92 | 1012.4 |
| 20260903025420 | 69 | 334 | 0.0 | 1.0 | 0.00 | 0.00 | 0.00 | 93 | 1012.4 |
| 20260903024914 | 69 | 334 | 0.0 | 1.0 | 0.00 | 0.00 | 0.00 | 92 | 1012.6 |
| 20260903024408 | 69 | 336 | 0.0 | 1.0 | 0.00 | 0.00 | 0.00 | 93 | 1012.6 |
| 20260903023905 | 69 | 342 | 0.0 | 1.0 | 0.00 | 0.00 | 0.00 | 94 | 1012.6 |
| 20260903023858 | 68 | 233 | 0.0 | 0.0 | 0.00 | 0.00 | 0.00 | 94 | 1012.6 |
| 20260903022850 | 68 | 233 | 0.0 | 0.0 | 0.00 | 0.00 | 0.00 | 94 | 1012.5 |
| 20260903022344 | 68 | 233 | 0.0 | 0.0 | 0.00 | 0.00 | 0.00 | 93 | 1012.4 |
| 20260903022109 | 69 | 233 | 0.0 | 0.0 | 0.00 | 0.00 | 0.00 | 93 | 1012.4 |
| 20260903021332 | 69 | 233 | 0.0 | 0.0 | 0.00 | 0.00 | 0.00 | 92 | 1012.3 |
| 20260903021057 | 69 | 233 | 0.0 | 0.0 | 0.00 | 0.00 | 0.00 | 91 | 1012.3 |
| 20260903020320 | 69 | 233 | 0.0 | 1.0 | 0.00 | 0.00 | 0.00 | 91 | 1012.4 |
| 20260903015814 | 69 | 233 | 0.0 | 1.0 | 0.00 | 0.00 | 0.00 | 90 | 1012.3 |
| 20260903015308 | 70 | 233 | 0.0 | 1.0 | 0.00 | 0.00 | 0.00 | 89 | 1012.4 |
| 20260903014802 | 70 | 65 | 0.0 | 1.0 | 0.00 | 0.00 | 0.00 | 88 | 1012.2 |
| 20260903014256 | 70 | 65 | 0.0 | 1.0 | 0.00 | 0.00 | 0.00 | 88 | 1012.3 |
| 20260903014248 | 69 | 32 | 0.0 | 0.0 | 0.00 | 0.00 | 0.00 | 86 | 1012.1 |
| 20260903013240 | 70 | 32 | 0.0 | 0.0 | 0.00 | 0.00 | 0.00 | 86 | 1012.2 |
| 20260903012734 | 70 | 32 | 0.0 | 0.0 | 0.00 | 0.00 | 0.00 | 85 | 1012.0 |
| 20260903012228 | 70 | 32 | 0.0 | 0.0 | 0.00 | 0.00 | 0.00 | 83 | 1011.9 |
| 20260903011722 | 71 | 32 | 0.0 | 0.0 | 0.00 | 0.00 | 0.00 | 83 | 1011.9 |
| 20260903011217 | 71 | 32 | 0.0 | 0.0 | 0.00 | 0.00 | 0.00 | 82 | 1011.9 |
| 20260903010710 | 71 | 32 | 0.0 | 1.0 | 0.00 | 0.00 | 0.00 | 81 | 1011.8 |
| 20260903010204 | 72 | 32 | 0.0 | 1.0 | 0.00 | 0.00 | 0.00 | 80 | 1011.7 |
| 20260903005658 | 72 | 32 | 0.0 | 0.0 | 0.00 | 0.00 | 0.00 | 79 | 1011.6 |
| 20260903005152 | 73 | 32 | 0.0 | 0.0 | 0.00 | 0.00 | 0.00 | 78 | 1011.7 |
| 20260903004645 | 74 | 32 | 0.0 | 1.0 | 0.00 | 0.00 | 0.00 | 76 | 1011.7 |
| 20260903004140 | 76 | 32 | 0.0 | 1.0 | 0.00 | 0.00 | 0.00 | 73 | 1011.7 |
| 20260903003634 | 76 | 32 | 0.0 | 1.0 | 0.00 | 0.00 | 0.00 | 71 | 1011.7 |
| 20260903003128 | 77 | 32 | 1.0 | 3.0 | 0.00 | 0.00 | 0.00 | 70 | 1011.7 |
| 20260903002622 | 78 | 28 | 2.0 | 3.0 | 0.00 | 0.00 | 0.00 | 70 | 1011.7 |
| 20260903002117 | 78 | 20 | 2.0 | 4.0 | 0.00 | 0.00 | 0.00 | 70 | 1011.6 |
| 20260903001610 | 78 | 29 | 3.0 | 4.0 | 0.00 | 0.00 | 0.00 | 68 | 1011.6 |
| 20260903001104 | 78 | 41 | 3.0 | 4.0 | 0.00 | 0.00 | 0.00 | 70 | 1011.5 |
| 20260903000829 | 79 | 38 | 3.0 | 4.0 | 0.00 | 0.00 | 0.00 | 65 | 1011.6 |
| 20260903000052 | 79 | 20 | 3.0 | 4.0 | 0.00 | 0.00 | 0.00 | 64 | 1011.6 |
| 20260902235546 | 79 | 16 | 3.0 | 4.0 | 0.00 | 0.00 | 0.00 | 64 | 1011.7 |
| 20260902235040 | 79 | 45 | 3.0 | 5.0 | 0.00 | 0.00 | 0.00 | 62 | 1011.8 |
| 20260902234535 | 79 | 3 | 3.0 | 5.0 | 0.00 | 0.00 | 0.00 | 62 | 1011.8 |
| 20260902234028 | 79 | 18 | 3.0 | 5.0 | 0.00 | 0.00 | 0.00 | 61 | 1011.7 |
| 20260902233522 | 79 | 11 | 3.0 | 4.0 | 0.00 | 0.00 | 0.00 | 60 | 1011.8 |
| 20260902233247 | 79 | 14 | 3.0 | 5.0 | 0.00 | 0.00 | 0.00 | 59 | 1011.9 |
| 20260902232741 | 79 | 13 | 3.0 | 5.0 | 0.00 | 0.00 | 0.00 | 61 | 1011.9 |
| 20260902232004 | 79 | 4 | 2.0 | 4.0 | 0.00 | 0.00 | 0.00 | 60 | 1011.9 |
| 20260902231458 | 79 | 355 | 1.0 | 4.0 | 0.00 | 0.00 | 0.00 | 61 | 1011.9 |
| 20260902230952 | 79 | 358 | 1.0 | 4.0 | 0.00 | 0.00 | 0.00 | 61 | 1012.0 |
| 20260902230446 | 80 | 345 | 1.0 | 4.0 | 0.00 | 0.00 | 0.00 | 60 | 1011.9 |
| 20260902225940 | 80 | 0 | 1.0 | 4.0 | 0.00 | 0.00 | 0.00 | 60 | 1012.0 |
| 20260902225705 | 80 | 53 | 0.0 | 3.0 | 0.00 | 0.00 | 0.00 | 59 | 1011.9 |
| 20260902224928 | 80 | 339 | 1.0 | 2.0 | 0.00 | 0.00 | 0.00 | 55 | 1011.9 |
| 20260902224422 | 80 | 350 | 0.0 | 2.0 | 0.00 | 0.00 | 0.00 | 53 | 1011.8 |
| 20260902223916 | 80 | 346 | 0.0 | 2.0 | 0.00 | 0.00 | 0.00 | 54 | 1011.8 |
| 20260902223410 | 80 | 19 | 0.0 | 2.0 | 0.00 | 0.00 | 0.00 | 55 | 1011.8 |
| 20260902222909 | 81 | 19 | 0.0 | 2.0 | 0.00 | 0.00 | 0.00 | 51 | 1011.8 |
| 20260902222409 | 81 | 354 | 0.0 | 2.0 | 0.00 | 0.00 | 0.00 | 53 | 1011.9 |
| 20260902222140 | 81 | 10 | 0.0 | 2.0 | 0.00 | 0.00 | 0.00 | 52 | 1011.9 |
| 20260902221406 | 81 | 9 | 0.0 | 1.0 | 0.00 | 0.00 | 0.00 | 51 | 1011.9 |
| 20260902220904 | 82 | 8 | 0.0 | 1.0 | 0.00 | 0.00 | 0.00 | 53 | 1011.8 |
| 20260902220401 | 82 | 34 | 0.0 | 1.0 | 0.00 | 0.00 | 0.00 | 53 | 1011.9 |
| 20260902220132 | 82 | 34 | 0.0 | 1.0 | 0.00 | 0.00 | 0.00 | 49 | 1012.0 |
| 20260902215359 | 82 | 1 | 0.0 | 1.0 | 0.00 | 0.00 | 0.00 | 49 | 1012.0 |
| 20260902214858 | 82 | 60 | 0.0 | 1.0 | 0.00 | 0.00 | 0.00 | 50 | 1012.0 |
| 20260902214629 | 82 | 60 | 0.0 | 1.0 | 0.00 | 0.00 | 0.00 | 48 | 1012.0 |
| 20260902213857 | 82 | 75 | 0.0 | 1.0 | 0.00 | 0.00 | 0.00 | 51 | 1012.1 |
| 20260902213627 | 82 | 82 | 0.0 | 1.0 | 0.00 | 0.00 | 0.00 | 50 | 1012.1 |
| 20260902212857 | 83 | 6 | 0.0 | 1.0 | 0.00 | 0.00 | 0.00 | 49 | 1012.0 |
| 20260902212355 | 83 | 6 | 0.0 | 1.0 | 0.00 | 0.00 | 0.00 | 48 | 1012.1 |
| 20260902211855 | 82 | 0 | 0.0 | 1.0 | 0.00 | 0.00 | 0.00 | 50 | 1012.1 |
| 20260902211354 | 82 | 0 | 0.0 | 0.0 | 0.00 | 0.00 | 0.00 | 49 | 1012.1 |
| 20260902210855 | 82 | 359 | 0.0 | 1.0 | 0.00 | 0.00 | 0.00 | 49 | 1012.1 |
| 20260902210351 | 82 | 358 | 0.0 | 1.0 | 0.00 | 0.00 | 0.00 | 50 | 1012.1 |
| 20260902205851 | 82 | 358 | 0.0 | 1.0 | 0.00 | 0.00 | 0.00 | 52 | 1012.2 |
| 20260902205350 | 82 | 5 | 0.0 | 1.0 | 0.00 | 0.00 | 0.00 | 51 | 1012.1 |
| 20260902204849 | 82 | 27 | 0.0 | 1.0 | 0.00 | 0.00 | 0.00 | 54 | 1012.1 |
| 20260902204351 | 82 | 1 | 0.0 | 1.0 | 0.00 | 0.00 | 0.00 | 53 | 1012.1 |
| 20260902203851 | 82 | 10 | 0.0 | 1.0 | 0.00 | 0.00 | 0.00 | 55 | 1012.1 |
| 20260902203349 | 82 | 15 | 0.0 | 1.0 | 0.00 | 0.00 | 0.00 | 53 | 1012.2 |
| 20260902202850 | 81 | 344 | 0.0 | 1.0 | 0.00 | 0.00 | 0.00 | 52 | 1012.2 |
| 20260902202351 | 81 | 6 | 0.0 | 1.0 | 0.00 | 0.00 | 0.00 | 52 | 1012.2 |
| 20260902201846 | 81 | 354 | 0.0 | 1.0 | 0.00 | 0.00 | 0.00 | 54 | 1012.4 |
| 20260902201346 | 81 | 12 | 0.0 | 1.0 | 0.00 | 0.00 | 0.00 | 56 | 1012.4 |
| 20260902200847 | 81 | 11 | 0.0 | 1.0 | 0.00 | 0.00 | 0.00 | 57 | 1012.4 |
| 20260902200346 | 81 | 11 | 0.0 | 2.0 | 0.00 | 0.00 | 0.00 | 59 | 1012.5 |
| 20260902195845 | 81 | 345 | 0.0 | 2.0 | 0.00 | 0.00 | 0.00 | 55 | 1012.5 |
| 20260902195345 | 81 | 3 | 1.0 | 3.0 | 0.00 | 0.00 | 0.00 | 56 | 1012.6 |
| 20260902194846 | 80 | 46 | 1.0 | 3.0 | 0.00 | 0.00 | 0.00 | 51 | 1012.6 |
| 20260902194617 | 80 | 21 | 1.0 | 3.0 | 0.00 | 0.00 | 0.00 | 52 | 1012.7 |
| 20260902193847 | 80 | 24 | 1.0 | 3.0 | 0.00 | 0.00 | 0.00 | 53 | 1012.9 |
| 20260902193616 | 80 | 29 | 2.0 | 3.0 | 0.00 | 0.00 | 0.00 | 55 | 1012.9 |
| 20260902192846 | 80 | 1 | 2.0 | 4.0 | 0.00 | 0.00 | 0.00 | 56 | 1012.9 |
| 20260902192345 | 80 | 5 | 1.0 | 4.0 | 0.00 | 0.00 | 0.00 | 57 | 1012.9 |
| 20260902191845 | 80 | 77 | 0.0 | 2.0 | 0.00 | 0.00 | 0.00 | 53 | 1013.0 |
| 20260902191346 | 80 | 34 | 0.0 | 1.0 | 0.00 | 0.00 | 0.00 | 55 | 1012.9 |
| 20260902190845 | 80 | 21 | 1.0 | 3.0 | 0.00 | 0.00 | 0.00 | 54 | 1013.0 |
| 20260902190346 | 80 | 51 | 1.0 | 3.0 | 0.00 | 0.00 | 0.00 | 59 | 1013.0 |
| 20260902185845 | 80 | 42 | 2.0 | 4.0 | 0.00 | 0.00 | 0.00 | 57 | 1013.1 |
| 20260902185343 | 80 | 0 | 2.0 | 4.0 | 0.00 | 0.00 | 0.00 | 56 | 1013.3 |
| 20260902184843 | 80 | 41 | 2.0 | 4.0 | 0.00 | 0.00 | 0.00 | 57 | 1013.2 |
| 20260902184615 | 80 | 20 | 2.0 | 4.0 | 0.00 | 0.00 | 0.00 | 59 | 1013.3 |
| 20260902183839 | 79 | 356 | 2.0 | 3.0 | 0.00 | 0.00 | 0.00 | 61 | 1013.4 |
| 20260902183334 | 79 | 2 | 2.0 | 4.0 | 0.00 | 0.00 | 0.00 | 58 | 1013.4 |
| 20260902182827 | 79 | 24 | 1.0 | 4.0 | 0.00 | 0.00 | 0.00 | 58 | 1013.4 |
| 20260902182320 | 79 | 6 | 1.0 | 3.0 | 0.00 | 0.00 | 0.00 | 59 | 1013.4 |
| 20260902181815 | 79 | 60 | 1.0 | 3.0 | 0.00 | 0.00 | 0.00 | 58 | 1013.5 |
| 20260902181309 | 79 | 72 | 1.0 | 2.0 | 0.00 | 0.00 | 0.00 | 56 | 1013.6 |
| 20260902180803 | 79 | 358 | 0.0 | 3.0 | 0.00 | 0.00 | 0.00 | 61 | 1013.7 |
| 20260902180257 | 79 | 32 | 0.0 | 3.0 | 0.00 | 0.00 | 0.00 | 61 | 1013.5 |
| 20260902180023 | 78 | 72 | 0.0 | 2.0 | 0.00 | 0.00 | 0.00 | 63 | 1013.4 |
| 20260902175245 | 78 | 50 | 0.0 | 2.0 | 0.00 | 0.00 | 0.00 | 65 | 1013.4 |
| 20260902175016 | 77 | 354 | 1.0 | 3.0 | 0.00 | 0.00 | 0.00 | 63 | 1013.5 |
| 20260902174233 | 77 | 352 | 1.0 | 3.0 | 0.00 | 0.00 | 0.00 | 65 | 1013.5 |
| 20260902173727 | 77 | 4 | 0.0 | 1.0 | 0.00 | 0.00 | 0.00 | 64 | 1013.5 |
| 20260902173221 | 77 | 4 | 0.0 | 1.0 | 0.00 | 0.00 | 0.00 | 65 | 1013.4 |
| 20260902172716 | 77 | 4 | 0.0 | 1.0 | 0.00 | 0.00 | 0.00 | 63 | 1013.4 |
| 20260902172209 | 77 | 18 | 0.0 | 2.0 | 0.00 | 0.00 | 0.00 | 66 | 1013.5 |
| 20260902171703 | 77 | 8 | 0.0 | 2.0 | 0.00 | 0.00 | 0.00 | 64 | 1013.4 |
| 20260902171157 | 77 | 27 | 0.0 | 2.0 | 0.00 | 0.00 | 0.00 | 65 | 1013.5 |
| 20260902170651 | 76 | 84 | 1.0 | 2.0 | 0.00 | 0.00 | 0.00 | 68 | 1013.6 |
| 20260902170145 | 76 | 72 | 1.0 | 2.0 | 0.00 | 0.00 | 0.00 | 68 | 1013.6 |
| 20260902165639 | 76 | 24 | 1.0 | 2.0 | 0.00 | 0.00 | 0.00 | 69 | 1013.6 |
| 20260902165133 | 76 | 89 | 0.0 | 2.0 | 0.00 | 0.00 | 0.00 | 66 | 1013.6 |
| 20260902164626 | 77 | 351 | 0.0 | 0.0 | 0.00 | 0.00 | 0.00 | 69 | 1013.6 |
| 20260902164350 | 77 | 60 | 0.0 | 0.0 | 0.00 | 0.00 | 0.00 | 66 | 1013.6 |
| 20260902163613 | 76 | 63 | 0.0 | 0.0 | 0.00 | 0.00 | 0.00 | 66 | 1013.6 |
| 20260902163107 | 77 | 63 | 0.0 | 0.0 | 0.00 | 0.00 | 0.00 | 67 | 1013.6 |
| 20260902162601 | 77 | 63 | 0.0 | 1.0 | 0.00 | 0.00 | 0.00 | 68 | 1013.6 |
| 20260902162055 | 77 | 103 | 1.0 | 3.0 | 0.00 | 0.00 | 0.00 | 67 | 1013.8 |
| 20260902161820 | 77 | 214 | 1.0 | 3.0 | 0.00 | 0.00 | 0.00 | 66 | 1013.9 |
| 20260902161043 | 77 | 153 | 1.0 | 3.0 | 0.00 | 0.00 | 0.00 | 64 | 1013.9 |
| 20260902160808 | 77 | 217 | 1.0 | 3.0 | 0.00 | 0.00 | 0.00 | 66 | 1014.0 |
| 20260902160302 | 77 | 26 | 1.0 | 3.0 | 0.00 | 0.00 | 0.00 | 69 | 1013.9 |
| 20260902155525 | 77 | 222 | 1.0 | 4.0 | 0.00 | 0.00 | 0.00 | 68 | 1014.1 |
| 20260902155019 | 77 | 214 | 0.0 | 4.0 | 0.00 | 0.00 | 0.00 | 67 | 1014.1 |
| 20260902154743 | 77 | 190 | 0.0 | 3.0 | 0.00 | 0.00 | 0.00 | 70 | 1014.2 |
| 20260902154007 | 77 | 327 | 0.0 | 3.0 | 0.00 | 0.00 | 0.00 | 69 | 1014.0 |
| 20260902153501 | 77 | 122 | 0.0 | 2.0 | 0.00 | 0.00 | 0.00 | 67 | 1013.9 |
| 20260902152955 | 76 | 56 | 1.0 | 3.0 | 0.00 | 0.00 | 0.00 | 71 | 1013.7 |
| 20260902152449 | 75 | 56 | 1.0 | 3.0 | 0.00 | 0.00 | 0.00 | 70 | 1013.5 |
| 20260902151943 | 75 | 88 | 1.0 | 2.0 | 0.00 | 0.00 | 0.00 | 70 | 1013.3 |
| 20260902151438 | 75 | 73 | 1.0 | 2.0 | 0.00 | 0.00 | 0.00 | 71 | 1013.5 |
| 20260902150931 | 75 | 48 | 1.0 | 2.0 | 0.00 | 0.00 | 0.00 | 70 | 1013.4 |
| 20260902150425 | 76 | 65 | 0.0 | 2.0 | 0.00 | 0.00 | 0.00 | 69 | 1013.4 |
| 20260902150150 | 76 | 148 | 0.0 | 3.0 | 0.00 | 0.00 | 0.00 | 69 | 1013.3 |
| 20260902145413 | 76 | 153 | 0.0 | 3.0 | 0.00 | 0.00 | 0.00 | 70 | 1013.3 |
| 20260902144907 | 76 | 236 | 0.0 | 3.0 | 0.00 | 0.00 | 0.00 | 71 | 1013.5 |
| 20260902144401 | 75 | 236 | 0.0 | 3.0 | 0.00 | 0.00 | 0.00 | 71 | 1013.4 |
| 20260902143855 | 75 | 97 | 0.0 | 2.0 | 0.00 | 0.00 | 0.00 | 72 | 1013.5 |
| 20260902143349 | 75 | 79 | 0.0 | 0.0 | 0.00 | 0.00 | 0.00 | 70 | 1013.5 |
| 20260902143114 | 75 | 126 | 1.0 | 3.0 | 0.00 | 0.00 | 0.00 | 71 | 1013.6 |
| 20260902142337 | 74 | 113 | 1.0 | 4.0 | 0.00 | 0.00 | 0.00 | 74 | 1013.6 |
| 20260902141831 | 74 | 91 | 0.0 | 4.0 | 0.00 | 0.00 | 0.00 | 74 | 1013.7 |
| 20260902141325 | 74 | 71 | 0.0 | 2.0 | 0.00 | 0.00 | 0.00 | 76 | 1013.8 |
| 20260902141050 | 74 | 98 | 0.0 | 2.0 | 0.00 | 0.00 | 0.00 | 77 | 1013.8 |
| 20260902140313 | 73 | 122 | 0.0 | 2.0 | 0.00 | 0.00 | 0.00 | 78 | 1013.7 |
| 20260902135807 | 72 | 3 | 0.0 | 0.0 | 0.00 | 0.00 | 0.00 | 79 | 1013.7 |
| 20260902135301 | 71 | 3 | 0.0 | 2.0 | 0.00 | 0.00 | 0.00 | 80 | 1013.8 |
| 20260902134755 | 70 | 2 | 1.0 | 2.0 | 0.00 | 0.00 | 0.00 | 83 | 1013.7 |
| 20260902134249 | 69 | 29 | 2.0 | 4.0 | 0.00 | 0.00 | 0.00 | 85 | 1013.8 |
| 20260902133743 | 69 | 18 | 2.0 | 4.0 | 0.00 | 0.00 | 0.00 | 85 | 1013.5 |
| 20260902133236 | 69 | 34 | 2.0 | 4.0 | 0.00 | 0.00 | 0.00 | 87 | 1013.5 |
| 20260902132731 | 69 | 25 | 1.0 | 3.0 | 0.00 | 0.00 | 0.00 | 88 | 1013.5 |
| 20260902132225 | 68 | 20 | 1.0 | 3.0 | 0.00 | 0.00 | 0.00 | 89 | 1013.8 |
| 20260902131953 | 68 | 357 | 1.0 | 2.0 | 0.00 | 0.00 | 0.00 | 89 | 1013.9 |
| 20260902131213 | 69 | 226 | 0.0 | 1.0 | 0.00 | 0.00 | 0.00 | 88 | 1013.9 |
| 20260902130707 | 69 | 224 | 0.0 | 1.0 | 0.00 | 0.00 | 0.00 | 90 | 1013.9 |
| 20260902130201 | 68 | 224 | 0.0 | 1.0 | 0.00 | 0.00 | 0.00 | 93 | 1013.8 |
| 20260902125655 | 67 | 224 | 0.0 | 1.0 | 0.00 | 0.00 | 0.00 | 94 | 1013.9 |
| 20260902125149 | 66 | 224 | 0.0 | 0.0 | 0.00 | 0.00 | 0.00 | 95 | 1014.0 |
| 20260902124643 | 65 | 224 | 0.0 | 0.0 | 0.00 | 0.00 | 0.00 | 95 | 1014.1 |
| 20260902124137 | 64 | 225 | 0.0 | 0.0 | 0.00 | 0.00 | 0.00 | 95 | 1014.0 |
| 20260902123631 | 64 | 224 | 0.0 | 0.0 | 0.00 | 0.00 | 0.00 | 95 | 1013.9 |
| 20260902123125 | 63 | 225 | 0.0 | 0.0 | 0.00 | 0.00 | 0.00 | 96 | 1013.8 |
| 20260902122619 | 62 | 224 | 0.0 | 1.0 | 0.00 | 0.00 | 0.00 | 97 | 1013.9 |
| 20260902122113 | 61 | 225 | 1.0 | 1.0 | 0.00 | 0.00 | 0.00 | 97 | 1013.9 |
| 20260902121607 | 61 | 224 | 0.0 | 1.0 | 0.00 | 0.00 | 0.00 | 97 | 1013.9 |
| 20260902121102 | 60 | 225 | 0.0 | 1.0 | 0.00 | 0.00 | 0.00 | 97 | 1013.9 |
| 20260902121056 | 60 | 224 | 0.0 | 0.0 | 0.00 | 0.00 | 0.00 | 97 | 1013.9 |
| 20260902120320 | 60 | 225 | 0.0 | 0.0 | 0.00 | 0.00 | 0.00 | 96 | 1013.9 |
| 20260902115544 | 60 | 224 | 0.0 | 0.0 | 0.00 | 0.00 | 0.00 | 96 | 1013.9 |
| 20260902115037 | 60 | 225 | 0.0 | 1.0 | 0.00 | 0.00 | 0.00 | 96 | 1013.8 |
| 20260902114802 | 60 | 224 | 0.0 | 1.0 | 0.00 | 0.00 | 0.00 | 96 | 1013.8 |
| 20260902114025 | 60 | 225 | 1.0 | 1.0 | 0.00 | 0.01 | 0.00 | 96 | 1013.8 |
| 20260902113519 | 61 | 224 | 0.0 | 1.0 | 0.00 | 0.01 | 0.00 | 96 | 1013.8 |
| 20260902113245 | 61 | 225 | 0.0 | 1.0 | 0.00 | 0.01 | 0.00 | 96 | 1013.7 |
| 20260902112507 | 61 | 225 | 0.0 | 1.0 | 0.00 | 0.01 | 0.00 | 96 | 1013.6 |
| 20260902112001 | 61 | 225 | 0.0 | 0.0 | 0.00 | 0.01 | 0.00 | 96 | 1013.3 |
| 20260902111455 | 62 | 224 | 0.0 | 0.0 | 0.00 | 0.01 | 0.00 | 96 | 1013.3 |
| 20260902110949 | 62 | 224 | 0.0 | 0.0 | 0.00 | 0.01 | 0.00 | 96 | 1013.3 |
| 20260902110443 | 62 | 224 | 0.0 | 0.0 | 0.00 | 0.01 | 0.00 | 96 | 1013.3 |
| 20260902105937 | 62 | 224 | 0.0 | 0.0 | 0.00 | 0.01 | 0.00 | 96 | 1013.0 |
| 20260902105431 | 62 | 224 | 0.0 | 0.0 | 0.00 | 0.01 | 0.00 | 96 | 1012.9 |
| 20260902105156 | 62 | 225 | 0.0 | 0.0 | 0.00 | 0.01 | 0.00 | 96 | 1012.9 |
| 20260902104419 | 62 | 224 | 0.0 | 0.0 | 0.00 | 0.01 | 0.00 | 96 | 1013.0 |
| 20260902103913 | 62 | 224 | 0.0 | 0.0 | 0.00 | 0.01 | 0.00 | 96 | 1012.9 |
| 20260902103407 | 62 | 224 | 0.0 | 1.0 | 0.00 | 0.01 | 0.00 | 96 | 1013.1 |
| 20260902103133 | 62 | 224 | 0.0 | 1.0 | 0.00 | 0.01 | 0.00 | 95 | 1013.1 |
| 20260902102355 | 62 | 224 | 0.0 | 1.0 | 0.00 | 0.01 | 0.00 | 95 | 1013.0 |
| 20260902101849 | 62 | 224 | 0.0 | 1.0 | 0.00 | 0.01 | 0.00 | 95 | 1013.0 |
| 20260902101345 | 62 | 225 | 0.0 | 1.0 | 0.00 | 0.01 | 0.00 | 95 | 1013.1 |
| 20260902101339 | 62 | 224 | 0.0 | 0.0 | 0.00 | 0.01 | 0.00 | 95 | 1013.2 |
| 20260902100333 | 63 | 224 | 0.0 | 1.0 | 0.00 | 0.01 | 0.00 | 94 | 1013.2 |
| 20260902100105 | 63 | 224 | 0.0 | 1.0 | 0.00 | 0.01 | 0.00 | 94 | 1013.2 |
| 20260902095336 | 63 | 224 | 0.0 | 0.0 | 0.00 | 0.01 | 0.00 | 94 | 1013.2 |
| 20260902094833 | 63 | 225 | 0.0 | 0.0 | 0.00 | 0.01 | 0.00 | 93 | 1013.1 |
| 20260902094330 | 64 | 225 | 0.0 | 0.0 | 0.00 | 0.01 | 0.00 | 93 | 1013.2 |
| 20260902093829 | 64 | 224 | 0.0 | 0.0 | 0.00 | 0.01 | 0.00 | 93 | 1013.3 |
| 20260902093328 | 64 | 224 | 0.0 | 0.0 | 0.00 | 0.01 | 0.00 | 93 | 1013.3 |
| 20260902092829 | 64 | 224 | 0.0 | 0.0 | 0.00 | 0.01 | 0.00 | 93 | 1013.3 |
| 20260902092330 | 64 | 225 | 0.0 | 0.0 | 0.00 | 0.01 | 0.00 | 93 | 1013.3 |
| 20260902092059 | 64 | 224 | 0.0 | 0.0 | 0.00 | 0.01 | 0.00 | 93 | 1013.5 |
| 20260902091602 | 64 | 224 | 0.0 | 0.0 | 0.00 | 0.01 | 0.00 | 93 | 1013.7 |
| 20260902090825 | 64 | 225 | 0.0 | 0.0 | 0.00 | 0.01 | 0.00 | 93 | 1013.8 |
| 20260902090326 | 64 | 224 | 0.0 | 1.0 | 0.00 | 0.01 | 0.00 | 92 | 1013.8 |
| 20260902085824 | 64 | 224 | 0.0 | 1.0 | 0.00 | 0.01 | 0.00 | 92 | 1013.8 |
| 20260902085325 | 64 | 224 | 0.0 | 0.0 | 0.00 | 0.01 | 0.00 | 92 | 1013.8 |
| 20260902084826 | 65 | 225 | 0.0 | 0.0 | 0.00 | 0.01 | 0.00 | 92 | 1013.6 |
| 20260902084325 | 65 | 224 | 0.0 | 1.0 | 0.00 | 0.01 | 0.00 | 91 | 1013.5 |
| 20260902083826 | 65 | 224 | 1.0 | 2.0 | 0.00 | 0.01 | 0.00 | 91 | 1013.5 |
| 20260902083555 | 65 | 225 | 1.0 | 2.0 | 0.00 | 0.01 | 0.00 | 90 | 1013.3 |
| 20260902082826 | 65 | 224 | 0.0 | 1.0 | 0.00 | 0.01 | 0.00 | 90 | 1013.4 |
| 20260902082556 | 65 | 224 | 0.0 | 1.0 | 0.00 | 0.01 | 0.00 | 90 | 1013.3 |
| 20260902081825 | 65 | 224 | 1.0 | 3.0 | 0.00 | 0.01 | 0.00 | 89 | 1013.2 |
| 20260902081324 | 65 | 224 | 1.0 | 3.0 | 0.00 | 0.01 | 0.00 | 89 | 1013.0 |
| 20260902081058 | 65 | 231 | 0.0 | 2.0 | 0.00 | 0.01 | 0.00 | 89 | 1013.0 |
| 20260902080324 | 65 | 227 | 1.0 | 2.0 | 0.00 | 0.01 | 0.00 | 90 | 1013.0 |
| 20260902075825 | 65 | 34 | 1.0 | 2.0 | 0.00 | 0.01 | 0.00 | 89 | 1012.9 |
| 20260902075324 | 66 | 34 | 1.0 | 2.0 | 0.00 | 0.01 | 0.00 | 89 | 1013.0 |
| 20260902074826 | 66 | 35 | 0.0 | 1.0 | 0.00 | 0.01 | 0.00 | 89 | 1012.9 |
| 20260902074323 | 66 | 36 | 0.0 | 1.0 | 0.00 | 0.01 | 0.00 | 89 | 1012.7 |
| 20260902073816 | 66 | 36 | 0.0 | 0.0 | 0.00 | 0.01 | 0.00 | 90 | 1012.6 |
| 20260902073312 | 66 | 36 | 0.0 | 0.0 | 0.00 | 0.01 | 0.00 | 88 | 1012.6 |
| 20260902073306 | 66 | 36 | 0.0 | 0.0 | 0.00 | 0.01 | 0.00 | 90 | 1012.7 |
| 20260902072259 | 67 | 36 | 0.0 | 0.0 | 0.00 | 0.01 | 0.00 | 89 | 1012.7 |
| 20260902071753 | 67 | 36 | 0.0 | 0.0 | 0.00 | 0.01 | 0.00 | 89 | 1012.9 |
| 20260902071247 | 67 | 36 | 0.0 | 1.0 | 0.00 | 0.01 | 0.00 | 89 | 1013.0 |
| 20260902070739 | 67 | 36 | 1.0 | 1.0 | 0.00 | 0.01 | 0.00 | 89 | 1013.0 |
| 20260902070233 | 67 | 23 | 1.0 | 2.0 | 0.00 | 0.01 | 0.00 | 89 | 1012.9 |
| 20260902065727 | 67 | 22 | 1.0 | 2.0 | 0.00 | 0.01 | 0.00 | 90 | 1012.6 |
| 20260902065221 | 67 | 55 | 1.0 | 2.0 | 0.00 | 0.01 | 0.00 | 91 | 1012.6 |
| 20260902064715 | 66 | 58 | 0.0 | 2.0 | 0.00 | 0.01 | 0.00 | 93 | 1012.5 |
| 20260902064209 | 66 | 15 | 0.0 | 0.0 | 0.00 | 0.01 | 0.00 | 93 | 1012.7 |
| 20260902063705 | 65 | 15 | 0.0 | 0.0 | 0.00 | 0.01 | 0.00 | 93 | 1012.6 |
| 20260902063157 | 65 | 239 | 0.0 | 0.0 | 0.00 | 0.01 | 0.00 | 93 | 1013.0 |
| 20260902062651 | 65 | 239 | 0.0 | 0.0 | 0.00 | 0.01 | 0.00 | 93 | 1013.0 |
| 20260902062145 | 65 | 225 | 0.0 | 0.0 | 0.00 | 0.01 | 0.00 | 93 | 1013.2 |
| 20260902061133 | 65 | 225 | 0.0 | 0.0 | 0.00 | 0.01 | 0.00 | 93 | 1013.5 |
| 20260902060626 | 65 | 225 | 0.0 | 0.0 | 0.00 | 0.01 | 0.00 | 93 | 1013.6 |